Muskegon, MI

2:44 PM EST on November 13, 2019 (GMT -0500)
Muskegon County

Weather History for KMKG - October, 2019

Change the Weather History Date:

Monday, October 21, 2019

  Actual Average Record
Temperature  
Mean Temperature 54 °F 49 °F  
Max Temperature 63 °F 57 °F 81 °F (1953)
Min Temperature 45 °F 41 °F 22 °F (1952)
Degree Days  
Heating Degree Days 11 16  
Month to date heating degree days 251 272  
Since 1 July heating degree days 293 445  
Cooling Degree Days 0 0  
Month to date cooling degree days 8 2  
Year to date cooling degree days 640 563  
Growing Degree Days 3 (Base 50)    
Moisture  
Dew Point 51 °F    
Average Humidity 76    
Maximum Humidity 93    
Minimum Humidity 59    
Precipitation  
Precipitation 0.28 in 0.09 in 1.23 in (1933)
Month to date precipitation 5.31 2.08  
Year to date precipitation 38.29 26.55  
Snow  
Snow 0.00 in 0.00 in T in (1981)
Month to date snowfall 0.0 0.0  
Since 1 July snowfall 0.0 0.0  
Since 1 September snowfall 0.0 0.0  
Snow Depth 0.00 in    
Sea Level Pressure  
Sea Level Pressure 29.63 in    
Wind  
Wind Speed 15 mph (SE)    
Max Wind Speed 31 mph    
Max Gust Speed 44 mph    
Visibility 8 miles    
Events Fog , Rain    
T = Trace of Precipitation, MM = Missing Value Source: NWS Daily Summary

Daily Weather History Graph

Daily Weather History Graph

Search for Another Location

Airport or City:

Astronomy

Oct. 21, 2019 Rise Set
Actual Time 8:05 AM EDT 6:52 PM EDT
Civil Twilight 7:36 AM EDT 7:21 PM EDT
Nautical Twilight 7:03 AM EDT 7:54 PM EDT
Astronomical Twilight 6:30 AM EDT 8:27 PM EDT
Moon No Moon Rise 3:28 PM EDT (10/21)
Length of Visible Light 11h 45m
Length of Day
10h 47m
Waning Gibbous, 48% of the Moon is Illuminated
Oct 21
Waning Gibbous
Oct 27
New
Nov 4
First Quarter
Nov 12
Full
Nov 19
Last Quarter

Hourly Weather History & Observations

Time (EDT) Temp. Windchill Dew Point Humidity Pressure Visibility Wind Dir Wind Speed Gust Speed Precip Events Conditions
12:04 AM 46.0 °F 44.8 °F 43.0 °F 89% 29.94 in 0.5 mi East 3.5 mph - N/A Fog Fog
12:14 AM 45.0 °F - 43.0 °F 93% 29.94 in 2.0 mi Calm Calm - N/A   Mostly Cloudy
12:17 AM 44.1 °F - 43.0 °F 96% 29.93 in 3.0 mi Calm Calm - N/A   Scattered Clouds
12:55 AM 46.0 °F - 43.0 °F 89% 29.94 in 5.0 mi Calm Calm - N/A   Scattered Clouds
1:55 AM 46.9 °F - 45.0 °F 93% 29.93 in 10.0 mi ESE 4.6 mph - N/A   Overcast
2:55 AM 48.0 °F - 43.0 °F 83% 29.90 in 10.0 mi East 4.6 mph - N/A   Partly Cloudy
3:55 AM 50.0 °F - 45.0 °F 83% 29.90 in 10.0 mi East 4.6 mph - N/A   Overcast
4:55 AM 51.1 °F - 46.0 °F 83% 29.88 in 10.0 mi East 6.9 mph - N/A   Mostly Cloudy
5:55 AM 53.1 °F - 46.9 °F 80% 29.86 in 10.0 mi East 10.4 mph - N/A   Overcast
6:55 AM 54.0 °F - 46.9 °F 77% 29.83 in 10.0 mi East 12.7 mph - N/A   Overcast
7:55 AM 54.0 °F - 46.0 °F 75% 29.78 in 10.0 mi East 15.0 mph - N/A   Overcast
8:55 AM 55.0 °F - 45.0 °F 69% 29.78 in 10.0 mi East 13.8 mph - N/A   Overcast
9:55 AM 57.0 °F - 45.0 °F 64% 29.73 in 10.0 mi ESE 16.1 mph 26.5 mph N/A   Overcast
10:55 AM 57.9 °F - 46.9 °F 67% 29.68 in 10.0 mi ESE 18.4 mph 26.5 mph N/A   Overcast
11:55 AM 59.0 °F - 50.0 °F 72% 29.60 in 8.0 mi East 25.3 mph 38.0 mph 0.00 in Rain Light Rain
12:55 PM 59.0 °F - 54.0 °F 83% 29.57 in 6.0 mi ESE 23.0 mph 36.8 mph 0.02 in Rain Light Rain
1:42 PM 60.1 °F - 55.0 °F 83% 29.48 in 10.0 mi ESE 24.2 mph 41.4 mph 0.03 in   Overcast
1:55 PM 60.1 °F - 55.0 °F 83% 29.51 in 10.0 mi SE 25.3 mph 36.8 mph 0.03 in   Overcast
2:55 PM 61.0 °F - 55.0 °F 81% 29.49 in 10.0 mi SE 23.0 mph 39.1 mph 0.00 in Rain Light Rain
3:42 PM 60.1 °F - 55.9 °F 86% 29.49 in 6.0 mi SE 20.7 mph 26.5 mph 0.01 in Rain Light Rain
3:55 PM 60.1 °F - 55.9 °F 86% 29.49 in 3.0 mi SE 16.1 mph 28.8 mph 0.01 in Rain Light Rain
4:04 PM 60.1 °F - 57.0 °F 90% 29.48 in 3.0 mi SE 17.3 mph 25.3 mph 0.01 in Rain Light Rain
4:12 PM 60.1 °F - 57.0 °F 90% 29.48 in 2.0 mi SE 18.4 mph 26.5 mph 0.02 in Rain Rain
4:36 PM 60.1 °F - 57.0 °F 90% 29.49 in 1.8 mi SSE 12.7 mph 26.5 mph 0.10 in Rain Heavy Rain
4:45 PM 60.1 °F - 57.0 °F 90% 29.48 in 2.0 mi SE 12.7 mph 20.7 mph 0.16 in Rain Light Rain
4:55 PM 60.1 °F - 57.0 °F 90% 29.48 in 6.0 mi SSE 13.8 mph 24.2 mph 0.16 in Rain Light Rain
5:10 PM 61.0 °F - 57.0 °F 87% 29.48 in 6.0 mi SSE 13.8 mph 33.4 mph 0.02 in Rain Light Rain
5:41 PM 62.1 °F - 57.9 °F 86% 29.47 in 10.0 mi SSE 13.8 mph 23.0 mph 0.05 in   Overcast
5:55 PM 61.0 °F - 57.9 °F 90% 29.47 in 10.0 mi SSE 13.8 mph 20.7 mph 0.05 in Rain Light Rain
6:07 PM 62.1 °F - 57.0 °F 84% 29.46 in 10.0 mi SSE 12.7 mph 23.0 mph 0.01 in Rain Light Rain
6:55 PM 62.1 °F - 57.9 °F 86% 29.48 in 10.0 mi SSE 12.7 mph 21.9 mph 0.01 in   Mostly Cloudy
7:17 PM 62.1 °F - 57.9 °F 86% 29.47 in 10.0 mi SSE 9.2 mph - N/A   Mostly Cloudy
7:55 PM 62.1 °F - 57.9 °F 86% 29.49 in 10.0 mi South 11.5 mph - N/A   Overcast
8:04 PM 62.6 °F - 57.2 °F 82% 29.49 in 10.0 mi South 13.8 mph 21.9 mph N/A   Mostly Cloudy
8:55 PM 60.1 °F - 54.0 °F 80% 29.51 in 10.0 mi SSW 18.4 mph 28.8 mph 0.00 in   Mostly Cloudy
9:55 PM 57.9 °F - 45.0 °F 62% 29.52 in 10.0 mi SW 17.3 mph 28.8 mph N/A   Mostly Cloudy
10:55 PM 55.4 °F - 44.6 °F 67% 29.55 in 10.0 mi WSW 15.0 mph 32.2 mph N/A   Scattered Clouds
11:55 PM 54.0 °F - 39.9 °F 59% 29.56 in 10.0 mi SSW 18.4 mph 29.9 mph N/A   Partly Cloudy